www.pogodaiklimat.ru

Погода и климат >> Архив погоды >> Мексика >> Тулансинго


ПОГОДА в Тулансинго

  • Прогноз погоды в Тулансинго
  • Монитор погоды в Тулансинго

АРХИВ ПОГОДЫ в Тулансинго

Время (UTC), дата Ветер
(напр.,м/с)
 
Видим.   Явления Облачность Т
(С)
Тd
(С)
f
(%)
Тe
(С)
Тes
(С)
Комфортность P
(гПа)
Po
(гПа)
Тmin
(С)
Tmax
(С)
R
(мм)
R24
(мм)
S
(см)
12 15.05 Ю 1 10 км мгла 8/8 600 м
[St]
+14.1 +12.1 88 +14 +14 1012.7 785.7 +13.3 +30.5
15 15.05 ЮЗ 1 15 км мгла {туман} 3/0 2000 м
[Ac trans]
+19.0 +13.4 70 +21 +30 комфорт 1014.9 786.9
18 15.05 ЮВ 2 15 км мгла {туман} 6/6 600 м
[Sc diur, vesp]
+25.0 +15.5 56 +28 +37 жарко 1013.4 786.6 +13.3 +26.0
21 15.05 СВ 5 10 км мгла 8/4 800 м
[Sc As op]
+24.0 +16.2 62 +27 +30 жарко 1009.5 785.2
00 16.05 СВ 3 10 км дым 3/3 800 м
[Sc]
+21.0 +16.8 77 +25 +26 комфорт 1007.5 784.8 +13.3 +27.2
03 16.05 СВ 1 10 км слаб. переохл. морось (гололёд) 9/9 800 м
[Sc diur, vesp]
+17.8 +14.9 83 +19 +19 1010.2 787.2 0.4
06 16.05 В 1 15 км мгла 3/3 800 м
[Sc diur, vesp]
+16.6 +11.1 70 +17 +17 1011.6 787.3 +13.3 +27.2 0.4
09 16.05 СВ 1 15 км мгла ясно +15.2 +10.9 75 +16 +16 1011.9 785.9
12 16.05 ЮВ 1 15 км мгла ясно +12.0 +10.7 92 +12 +12 1014.8 786.6 +11.1 +27.2
15 16.05 СЗ 1 15 км мгла {туман} 3/1 800 м
[Cu med, cong Ci]
+17.1 +12.2 73 +18 +27 1017.4 787.9
21 17.05 ЮВ 2 18 км мгла 9/9 800 м
[Cb calv]
+25.8 +9.8 36 +26 +28 жарко 1005.5 783.4
00 18.05 СВ 3 20 км мгла 9/8 800 м
[Cb calv As op]
+24.4 +12.4 47 +26 +26 жарко 1004.1 783.8 +14.5 +29.6
03 18.05 СВ 1 18 км мгла 6/6 800 м
[Sc]
+18.8 +9.5 55 +21 +21 комфорт 1004.8 784.5
06 18.05 СВ 1 18 км мгла 8/8 800 м
[Sc]
+17.4 +9.3 59 +18 +18 1006.9 784.6 +14.5 +29.6
12 18.05 СВ 1 18 км мгла 8/3 800 м
[Sc diur, vesp Cs]
+15.4 +8.0 61 +16 +16 1010.2 784.2 +14.5 +29.6
15 18.05 ЮВ 3 18 км мгла 1/0
[Ci]
+22.0 +11.6 52 +24 +32 комфорт 1011.6 785.1
18 18.05 СВ 3 18 км мгла 4/4 800 м
[Cu med, cong]
+29.4 +13.8 38 +31 +42 жарко 1008.1 784.0 +14.5 +30.2
21 18.05 В 3 18 км мгла 8/4 800 м
[Sc diur, vesp Ac cuf]
+27.8 +14.6 44 +30 +34 жарко 1003.1 782.0
00 19.05 В 3 18 км мгла 5/0 2000 м
[Ac und Ci]
+25.8 +11.3 40 +27 +28 жарко 1000.6 781.8 +14.5 +32.0 0.0
03 19.05 В 2 18 км мгла 3/0
[Ac trans]
+20.8 +10.5 52 +23 +23 комфорт 1002.2 783.5
06 19.05 В 3 18 км мгла 1/0
[Ac und]
+19.0 +10.4 57 +20 +20 1004.3 783.9 +14.5 +32.0
09 19.05 В 4 18 км мгла 4/0
[Ac und]
+17.4 +10.3 63 +17 +17 1005.8 783.3
12 19.05 С 3 18 км мгла 1/0
[Ac cast]
+16.0 +10.4 69 +16 +16 1008.7 783.9 +15.0 +32.0
15 19.05 З 2 18 км мгла ясно +23.4 +11.9 48 +26 +35 жарко 1010.5 784.9
18 19.05 С 2 20 км мгла 3/1 800 м
[Cu med, cong Ac cuf]
+29.2 +11.4 33 +30 +46 жарко 1008.6 784.8 +15.0 +30.0
21 19.05 СВ 2 18 км мгла {туман} 3/3 800 м
[Cu med, cong]
+30.2 +8.1 25 +29 +40 жарко 1004.5 783.5
00 20.05 ЮВ 1 15 км мгла {туман} 4/1 800 м
[Cu med, cong Ac cuf Ci]
+25.4 +15.0 53 +28 +29 жарко 1001.8 783.3 +15.0 +31.3
03 20.05 Ю 1 15 км мгла 1/0 2000 м
[As trans]
+20.2 +15.4 74 +24 +24 комфорт 1004.0 785.2
06 20.05 Ю 1 18 км мгла ясно +17.1 +10.5 65 +18 +18 1006.5 785.6 +15.0 +31.3
09 20.05 ЮВ 1 18 км мгла 1/1 1500 м
[Cu hum]
+14.8 +8.7 67 +15 +15 1008.5 784.8
12 20.05 ЮВ 1 18 км мгла 1/1 1020 м
[Cu hum]
+13.8 +5.3 56 +14 +14 1011.5 784.8 +31.3
15 20.05 ЮВ 2 25 км {туман} ясно +23.5 +9.2 40 +24 +34 комфорт 1013.4 785.9
18 20.05 ЮВ 2 20 км мгла {туман} 1/1 800 м
[Cu med, cong]
+29.4 +6.1 23 +28 +48 жарко 1009.8 784.8 +12.9 +30.4
21 20.05 СВ 5 20 км мгла 1/0 2000 м
[Ac trans]
+29.4 +8.8 28 +29 +37 жарко 1005.2 783.4
00 21.05 СВ 5 18 км мгла 1/0
[Cs]
+25.2 +14.1 50 +28 +28 жарко 1001.9 783.0 +12.9 +31.4
03 21.05 ЮВ 1 18 км мгла 3/0
[Cs]
+19.4 +13.3 68 +22 +22 комфорт 1002.7 784.0
06 21.05 В 1 18 км мгла ясно +16.4 +9.5 64 +17 +17 1005.0 784.1 +12.9 +31.4
09 21.05 СВ 1 18 км мгла ясно +17.4 +8.9 57 +18 +18 1005.6 782.6
12 21.05 СВ 1 20 км мгла ясно +16.4 +8.8 61 +17 +17 1008.3 782.9 +14.6 +31.4
15 21.05 З 1 18 км {туман} ясно +23.7 +8.7 38 +24 +35 комфорт 1008.9 783.2
18 21.05 СЗ 2 20 км мгла {туман} 4/1 800 м
[Cu med, cong Ci]
+29.2 +9.0 28 +29 +47 жарко 1005.9 782.8 +14.6 +30.5
21 21.05 СВ 5 18 км мгла 5/5 800 м
[Cu med, cong]
+29.6 +14.5 40 +32 +36 душно 1001.2 781.3
00 22.05 СВ 5 18 км мгла 3/0 800 м
[Ac lent]
+26.4 +12.1 41 +28 +28 жарко 998.7 781.2 +14.6 +33.4
03 22.05 СЗ 1 18 км мгла 10/0
[As op]
+22.1 +7.8 40 +23 +23 комфорт 1000.1 782.8
06 22.05 З 1 18 км мгла 8/0 2000 м
[Ac trans]
+20.4 +6.9 42 +23 +23 комфорт 1003.4 784.2 +14.6 +33.4
09 22.05 З 1 18 км мгла 1/0
[Ac trans]
+17.4 +8.9 57 +18 +18 1004.2 782.8

 

Местоположение метеостанции Тулансинго (Мексика): широта 20.08 долгота -98.37 высота над уровнем моря 2181 м.

В архиве по умолчанию представлена погода в Тулансинго за последнюю неделю. Архивные данные за месяц целиком и за предыдущие месяцы, начиная с января 2011 года, Вы можете получить, выбрав интересующий диапазон дат из раскрывающегося списка и нажав кнопку "Ввод!".


*Определитесь, кто Вы:
робот инопланетянин человек

Внимание! Время в таблицах - всемирное. Для получения местного времени необходимо прибавить поправку, которая равна -6 ч.

Смотрите также архив погоды в соседних городах и на ближайших метеорологических станциях:

Погода в Пачуке (Мексика) (40 км)
Погода в Тлашкале (Мексика) (85 км)
Погода в Тлашкала аэропорту (Мексика) (87 км)
Погода в Мехико (Мексика) (114 км)
Погода в Пуэбле (Мексика) (117 км)
Погода в Институте Географии (Мексика) (120 км)
Погода в Туспане (Мексика) (140 км)
Погода в Маталапе (Мексика) (145 км)
Погода в Куэрнаваке (Мексика) (161 км)
Погода в Толуке (Мексика) (164 км)

Пояснения к столбцам:

Ветер - указаны скорость ветра в м/с - средняя за 10 мин, порывы в срок и между сроками (в фигурных скобках) и направление, откуда дует ветер: С - северный, СВ - северо-восточный, В - восточный, ЮВ - юго-восточный, Ю - южный, ЮЗ - юго-западный, З - западный, СЗ - северо-западный.
Видимость - горизонтальная дальность видимости в метрах или километрах. При видимости от 1 до 10 км при отсутствии осадков обычно наблюдается дымка, при ухудшении видимости до 1 км и менее - туман. В сухую погоду видимость может ухудшаться дымом, пылью или мглою.
Явления - указаны атмосферные явления, наблюдавшиеся в срок или в последний час перед сроком; фигурными скобками обозначены явления, наблюдавшиеся между сроками (за 1-3 часа до срока); квадратными скобками обозначены град или гололедные отложения с указанием их диаметра в мм.
Облачность - указаны через наклонную черту общая и нижняя облачность в баллах и высота нижней границы облаков в метрах; квадратными скобками обозначены формы облаков: Ci - перистые, Cs - перисто-слоистые, Cc - перисто-кучевые, Ac - высококучевые, As - высокослоистые, Sc - слоисто-кучевые, Ns - слоисто-дождевые, Cu - кучевые, Cb - кучево-дождевые. Подробнее классификацию облаков см. в Атласе облаков (PDF).
T - Температура воздуха - температура, измеренная на высоте 2 м над землей.
Td - Температура точки росы - температура, при понижении до которой содержащийся в воздухе водяной пар достигнет насыщения.
f - Относительная влажность воздуха - влажноcть воздуха, измеренная на высоте 2 м над землей.
Te - Эффективная температура - температура, которую ощущает одетый по сезону человек в тени. Характеристика душности погоды. При расчете учитывается влияние влажности воздуха и скорости ветра на теплоощущения человека.
Tes - Эффективная температура на солнце - температура, которую ощущает человек, с поправкой на солнечный нагрев. Характеристика знойности погоды. Зависит от высоты солнца над горизонтом, облачности и скорости ветра. Ночью, в пасмурную погоду, а также при ветре 12 м/с и более поправка равна нулю.
P - Атмосферное давление - приведенное к уровню моря атмосферное давление.
Po - Атмосферное давление - измеренное на уровне метеостанции атмосферное давление.
Tmin - Минимальная температура - минимум температуры воздуха на высоте 2 м над землей.
Tmax - Максимальная температура - максимум температуры воздуха на высоте 2 м над землей.
R - Количество осадков - Количество выпавших осадков за период времени, мм. При наведении курсора мыши на число - период времени, за который выпало указанное количество осадков.
R24 - Количество осадков - Количество выпавших осадков за 24 часа, мм.
S - Снежный покров - Высота снежного покрова, см. При наведении курсора мыши на число - состояние снежного покрова и степень покрытия местности в баллах.